contact:dominique.lefevre@mio.osupytheas.fr, maurice.libes@osupytheas.fr, didier.mallarino@osupytheas.fr
Project:EMSO http://www.emso-fr.org/EMSO-France
Depth: 2436.0 m
Title:EMSO Ligure Ouest : Data MII capteur MICROCAT
DateTime_Computer,Latitude,Longitude,Temperature,Conductivity,Pressure,DateTime_Instrument
DateTime_Computer,Latitude,Longitude,degC,S m-1,dbar,DateTime_Instrument
2021-05-11T00:01:20Z,42.805,6.029,13.3001,4.60008,2470.646,2021-5-11T02:02:31Z
2021-05-11T00:04:23Z,42.805,6.029,13.3009,4.60009,2470.684,2021-5-11T02:05:34Z
2021-05-11T00:07:27Z,42.805,6.029,13.2996,4.60003,2470.637,2021-5-11T02:08:37Z
2021-05-11T00:10:30Z,42.805,6.029,13.2995,4.60004,2470.637,2021-5-11T02:11:40Z
2021-05-11T00:13:33Z,42.805,6.029,13.2994,4.60002,2470.637,2021-5-11T02:14:43Z
2021-05-11T00:16:36Z,42.805,6.029,13.2997,4.59998,2470.633,2021-5-11T02:17:47Z
2021-05-11T00:19:39Z,42.805,6.029,13.3000,4.60002,2470.624,2021-5-11T02:20:50Z
2021-05-11T00:22:42Z,42.805,6.029,13.3009,4.60041,2470.637,2021-5-11T02:23:53Z
2021-05-11T00:25:45Z,42.805,6.029,13.3010,4.60028,2470.661,2021-5-11T02:26:56Z
2021-05-11T00:28:48Z,42.805,6.029,13.3004,4.60014,2470.646,2021-5-11T02:29:59Z
2021-05-11T00:31:52Z,42.805,6.029,13.3000,4.60001,2470.624,2021-5-11T02:33:02Z
2021-05-11T00:34:55Z,42.805,6.029,13.2997,4.60016,2470.624,2021-5-11T02:36:05Z
2021-05-11T00:37:58Z,42.805,6.029,13.2994,4.59999,2470.624,2021-5-11T02:39:08Z
2021-05-11T00:41:01Z,42.805,6.029,13.2991,4.59998,2470.646,2021-5-11T02:42:12Z
2021-05-11T00:44:04Z,42.805,6.029,13.2999,4.60009,2470.646,2021-5-11T02:45:15Z
2021-05-11T00:47:07Z,42.805,6.029,13.3015,4.60011,2470.624,2021-5-11T02:48:18Z
2021-05-11T00:50:10Z,42.805,6.029,13.3004,4.60015,2470.6,2021-5-11T02:51:21Z
2021-05-11T00:53:13Z,42.805,6.029,13.3004,4.60000,2470.624,2021-5-11T02:54:24Z
2021-05-11T00:56:17Z,42.805,6.029,13.2991,4.59998,2470.614,2021-5-11T02:57:27Z
2021-05-11T00:59:20Z,42.805,6.029,13.2996,4.60001,2470.624,2021-5-11T03:00:30Z
2021-05-11T01:02:23Z,42.805,6.029,13.2996,4.60004,2470.624,2021-5-11T03:03:33Z
2021-05-11T01:05:26Z,42.805,6.029,13.2992,4.60002,2470.6,2021-5-11T03:06:37Z
2021-05-11T01:08:29Z,42.805,6.029,13.2993,4.60001,2470.661,2021-5-11T03:09:40Z
2021-05-11T01:11:32Z,42.805,6.029,13.2996,4.60006,2470.61,2021-5-11T03:12:43Z
2021-05-11T01:14:35Z,42.805,6.029,13.3011,4.60024,2470.661,2021-5-11T03:15:46Z
2021-05-11T01:17:38Z,42.805,6.029,13.3012,4.60019,2470.624,2021-5-11T03:18:49Z
2021-05-11T01:20:42Z,42.805,6.029,13.2998,4.60001,2470.637,2021-5-11T03:21:52Z
2021-05-11T01:23:45Z,42.805,6.029,13.2992,4.60001,2470.637,2021-5-11T03:24:55Z
2021-05-11T01:26:48Z,42.805,6.029,13.2993,4.59999,2470.661,2021-5-11T03:27:58Z
2021-05-11T01:29:51Z,42.805,6.029,13.2990,4.59998,2470.6,2021-5-11T03:31:02Z
2021-05-11T01:32:54Z,42.805,6.029,13.2991,4.59999,2470.637,2021-5-11T03:34:05Z
2021-05-11T01:35:57Z,42.805,6.029,13.2992,4.59998,2470.637,2021-5-11T03:37:08Z
2021-05-11T01:39:00Z,42.805,6.029,13.2998,4.59998,2470.637,2021-5-11T03:40:11Z
2021-05-11T01:42:03Z,42.805,6.029,13.2990,4.60000,2470.646,2021-5-11T03:43:14Z
2021-05-11T01:45:06Z,42.805,6.029,13.3003,4.60002,2470.624,2021-5-11T03:46:17Z
2021-05-11T01:48:10Z,42.805,6.029,13.2995,4.59999,2470.624,2021-5-11T03:49:20Z
2021-05-11T01:51:13Z,42.805,6.029,13.3001,4.60005,2470.661,2021-5-11T03:52:23Z
2021-05-11T01:54:16Z,42.805,6.029,13.2996,4.60010,2470.624,2021-5-11T03:55:27Z
2021-05-11T01:57:19Z,42.805,6.029,13.2990,4.59999,2470.637,2021-5-11T03:58:30Z
2021-05-11T02:00:22Z,42.805,6.029,13.3007,4.60004,2470.624,2021-5-11T04:01:33Z
2021-05-11T02:03:25Z,42.805,6.029,13.2998,4.59999,2470.6,2021-5-11T04:04:36Z
2021-05-11T02:06:28Z,42.805,6.029,13.2992,4.59998,2470.6,2021-5-11T04:07:39Z
2021-05-11T02:09:31Z,42.805,6.029,13.2993,4.59997,2470.624,2021-5-11T04:10:42Z
2021-05-11T02:12:35Z,42.805,6.029,13.2994,4.59998,2470.624,2021-5-11T04:13:45Z
2021-05-11T02:15:38Z,42.805,6.029,13.2990,4.59997,2470.646,2021-5-11T04:16:48Z
2021-05-11T02:18:41Z,42.805,6.029,13.2990,4.59996,2470.624,2021-5-11T04:19:52Z
2021-05-11T02:21:44Z,42.805,6.029,13.2995,4.59997,2470.6,2021-5-11T04:22:55Z
2021-05-11T02:24:47Z,42.805,6.029,13.2992,4.59997,2470.637,2021-5-11T04:25:58Z
2021-05-11T02:27:50Z,42.805,6.029,13.2990,4.59999,2470.646,2021-5-11T04:29:01Z
2021-05-11T02:30:53Z,42.805,6.029,13.2990,4.59997,2470.646,2021-5-11T04:32:04Z
2021-05-11T02:33:56Z,42.805,6.029,13.2993,4.59998,2470.624,2021-5-11T04:35:07Z
2021-05-11T02:37:00Z,42.805,6.029,13.2993,4.59997,2470.646,2021-5-11T04:38:10Z
2021-05-11T02:40:03Z,42.805,6.029,13.2993,4.60000,2470.661,2021-5-11T04:41:13Z
2021-05-11T02:43:06Z,42.805,6.029,13.2995,4.59998,2470.661,2021-5-11T04:44:17Z
2021-05-11T02:46:09Z,42.805,6.029,13.2992,4.59997,2470.646,2021-5-11T04:47:20Z
2021-05-11T02:49:12Z,42.805,6.029,13.2994,4.59998,2470.646,2021-5-11T04:50:23Z
2021-05-11T02:52:15Z,42.805,6.029,13.2991,4.59999,2470.646,2021-5-11T04:53:26Z
2021-05-11T02:55:18Z,42.805,6.029,13.2990,4.59999,2470.661,2021-5-11T04:56:29Z
2021-05-11T02:58:21Z,42.805,6.029,13.2991,4.59997,2470.624,2021-5-11T04:59:32Z
2021-05-11T03:01:25Z,42.805,6.029,13.2992,4.59998,2470.646,2021-5-11T05:02:35Z
2021-05-11T03:04:28Z,42.805,6.029,13.2990,4.59996,2470.67,2021-5-11T05:05:38Z
2021-05-11T03:07:31Z,42.805,6.029,13.2995,4.59999,2470.661,2021-5-11T05:08:41Z
2021-05-11T03:10:34Z,42.805,6.029,13.2998,4.59998,2470.707,2021-5-11T05:11:45Z
2021-05-11T03:13:37Z,42.805,6.029,13.2996,4.59998,2470.637,2021-5-11T05:14:48Z
2021-05-11T03:16:40Z,42.805,6.029,13.2992,4.60001,2470.67,2021-5-11T05:17:51Z
2021-05-11T03:19:43Z,42.805,6.029,13.2993,4.60000,2470.67,2021-5-11T05:20:54Z
2021-05-11T03:22:46Z,42.805,6.029,13.2997,4.59999,2470.707,2021-5-11T05:23:57Z
2021-05-11T03:25:50Z,42.805,6.029,13.2993,4.59998,2470.684,2021-5-11T05:27:00Z
2021-05-11T03:28:53Z,42.805,6.029,13.2993,4.59998,2470.707,2021-5-11T05:30:03Z
2021-05-11T03:31:56Z,42.805,6.029,13.2993,4.59996,2470.67,2021-5-11T05:33:06Z
2021-05-11T03:34:59Z,42.805,6.029,13.2995,4.59997,2470.646,2021-5-11T05:36:10Z
2021-05-11T03:38:02Z,42.805,6.029,13.3002,4.60006,2470.661,2021-5-11T05:39:13Z
2021-05-11T03:41:05Z,42.805,6.029,13.2996,4.60003,2470.693,2021-5-11T05:42:16Z
2021-05-11T03:44:08Z,42.805,6.029,13.2993,4.59999,2470.693,2021-5-11T05:45:19Z
2021-05-11T03:47:11Z,42.805,6.029,13.3005,4.60012,2470.67,2021-5-11T05:48:22Z
2021-05-11T03:50:15Z,42.805,6.029,13.3003,4.60002,2470.693,2021-5-11T05:51:25Z
2021-05-11T03:53:18Z,42.805,6.029,13.3004,4.60005,2470.656,2021-5-11T05:54:28Z
2021-05-11T03:56:21Z,42.805,6.029,13.2991,4.59999,2470.717,2021-5-11T05:57:31Z
2021-05-11T03:59:24Z,42.805,6.029,13.2992,4.60001,2470.717,2021-5-11T06:00:35Z
2021-05-11T04:02:27Z,42.805,6.029,13.3002,4.60011,2470.707,2021-5-11T06:03:38Z
2021-05-11T04:05:30Z,42.805,6.029,13.3004,4.60014,2470.684,2021-5-11T06:06:41Z
2021-05-11T04:08:33Z,42.805,6.029,13.3003,4.60024,2470.67,2021-5-11T06:09:44Z
2021-05-11T04:11:36Z,42.805,6.029,13.2998,4.60002,2470.693,2021-5-11T06:12:47Z
2021-05-11T04:14:40Z,42.805,6.029,13.2993,4.60004,2470.693,2021-5-11T06:15:50Z
2021-05-11T04:17:43Z,42.805,6.029,13.2995,4.60001,2470.67,2021-5-11T06:18:53Z
2021-05-11T04:20:46Z,42.805,6.029,13.3001,4.60009,2470.693,2021-5-11T06:21:56Z
2021-05-11T04:23:49Z,42.805,6.029,13.3004,4.60001,2470.684,2021-5-11T06:25:00Z
2021-05-11T04:26:52Z,42.805,6.029,13.2996,4.60006,2470.717,2021-5-11T06:28:03Z
2021-05-11T04:29:55Z,42.805,6.029,13.2996,4.60006,2470.74,2021-5-11T06:31:06Z
2021-05-11T04:32:58Z,42.805,6.029,13.2994,4.60014,2470.693,2021-5-11T06:34:09Z
2021-05-11T04:36:01Z,42.805,6.029,13.2996,4.59999,2470.74,2021-5-11T06:37:12Z
2021-05-11T04:39:05Z,42.805,6.029,13.3008,4.60013,2470.73,2021-5-11T06:40:15Z
2021-05-11T04:42:08Z,42.805,6.029,13.3009,4.60013,2470.73,2021-5-11T06:43:18Z
2021-05-11T04:45:11Z,42.805,6.029,13.3011,4.60016,2470.73,2021-5-11T06:46:21Z
2021-05-11T04:48:14Z,42.805,6.029,13.3006,4.60011,2470.754,2021-5-11T06:49:25Z
2021-05-11T04:51:17Z,42.805,6.029,13.3002,4.60003,2470.717,2021-5-11T06:52:28Z
2021-05-11T04:54:20Z,42.805,6.029,13.3004,4.60013,2470.754,2021-5-11T06:55:31Z
2021-05-11T04:57:23Z,42.805,6.029,13.2994,4.59999,2470.763,2021-5-11T06:58:34Z
2021-05-11T05:00:26Z,42.805,6.029,13.2995,4.60002,2470.73,2021-5-11T07:01:37Z
2021-05-11T05:03:30Z,42.805,6.029,13.3012,4.60024,2470.74,2021-5-11T07:04:40Z
2021-05-11T05:06:33Z,42.805,6.029,13.3004,4.60003,2470.726,2021-5-11T07:07:43Z
2021-05-11T05:09:36Z,42.805,6.029,13.3004,4.60009,2470.763,2021-5-11T07:10:46Z
2021-05-11T05:12:39Z,42.805,6.029,13.3001,4.60006,2470.74,2021-5-11T07:13:50Z
2021-05-11T05:15:42Z,42.805,6.029,13.3008,4.60007,2470.74,2021-5-11T07:16:53Z
2021-05-11T05:18:45Z,42.805,6.029,13.3009,4.60007,2470.763,2021-5-11T07:19:56Z
2021-05-11T05:21:48Z,42.805,6.029,13.3003,4.60015,2470.763,2021-5-11T07:22:59Z
2021-05-11T05:24:51Z,42.805,6.029,13.3001,4.60003,2470.754,2021-5-11T07:26:02Z
2021-05-11T05:27:55Z,42.805,6.029,13.3008,4.60012,2470.763,2021-5-11T07:29:05Z
2021-05-11T05:30:58Z,42.805,6.029,13.3003,4.60016,2470.8,2021-5-11T07:32:08Z
2021-05-11T05:34:01Z,42.805,6.029,13.3006,4.60026,2470.787,2021-5-11T07:35:11Z
2021-05-11T05:37:04Z,42.805,6.029,13.3000,4.60013,2470.73,2021-5-11T07:38:15Z
2021-05-11T05:40:07Z,42.805,6.029,13.2999,4.60004,2470.763,2021-5-11T07:41:18Z
2021-05-11T05:43:10Z,42.805,6.029,13.2994,4.60001,2470.763,2021-5-11T07:44:21Z
2021-05-11T05:46:13Z,42.805,6.029,13.3001,4.60014,2470.763,2021-5-11T07:47:24Z
2021-05-11T05:49:16Z,42.805,6.029,13.3005,4.60010,2470.81,2021-5-11T07:50:27Z
2021-05-11T05:52:19Z,42.805,6.029,13.2992,4.59999,2470.773,2021-5-11T07:53:30Z
2021-05-11T05:55:23Z,42.805,6.029,13.3005,4.60026,2470.8,2021-5-11T07:56:33Z
2021-05-11T05:58:26Z,42.805,6.029,13.3002,4.60014,2470.787,2021-5-11T07:59:36Z
2021-05-11T06:01:29Z,42.805,6.029,13.3014,4.60014,2470.777,2021-5-11T08:02:40Z
2021-05-11T06:04:32Z,42.805,6.029,13.3006,4.60010,2470.763,2021-5-11T08:05:43Z
2021-05-11T06:07:35Z,42.805,6.029,13.3000,4.60013,2470.787,2021-5-11T08:08:46Z
2021-05-11T06:10:38Z,42.805,6.029,13.3006,4.60010,2470.787,2021-5-11T08:11:49Z
2021-05-11T06:13:41Z,42.805,6.029,13.3004,4.60017,2470.787,2021-5-11T08:14:52Z
2021-05-11T06:16:45Z,42.805,6.029,13.2997,4.60005,2470.787,2021-5-11T08:17:55Z
2021-05-11T06:19:48Z,42.805,6.029,13.3004,4.60021,2470.787,2021-5-11T08:20:58Z
2021-05-11T06:22:51Z,42.805,6.029,13.3014,4.60018,2470.787,2021-5-11T08:24:01Z
2021-05-11T06:25:54Z,42.805,6.029,13.3000,4.60026,2470.787,2021-5-11T08:27:05Z
2021-05-11T06:28:57Z,42.805,6.029,13.3007,4.60020,2470.777,2021-5-11T08:30:08Z
2021-05-11T06:32:00Z,42.805,6.029,13.3005,4.60020,2470.8,2021-5-11T08:33:11Z
2021-05-11T06:35:03Z,42.805,6.029,13.3005,4.60036,2470.81,2021-5-11T08:36:14Z
2021-05-11T06:38:06Z,42.805,6.029,13.3009,4.60019,2470.8,2021-5-11T08:39:17Z
2021-05-11T06:41:09Z,42.805,6.029,13.3009,4.60027,2470.787,2021-5-11T08:42:20Z
2021-05-11T06:44:13Z,42.805,6.029,13.3009,4.60034,2470.787,2021-5-11T08:45:23Z
2021-05-11T06:47:16Z,42.805,6.029,13.3001,4.60031,2470.8,2021-5-11T08:48:26Z
2021-05-11T06:50:19Z,42.805,6.029,13.3006,4.60038,2470.763,2021-5-11T08:51:29Z
2021-05-11T06:53:22Z,42.805,6.029,13.3005,4.60029,2470.763,2021-5-11T08:54:33Z
2021-05-11T06:56:25Z,42.805,6.029,13.3004,4.60020,2470.8,2021-5-11T08:57:36Z
2021-05-11T06:59:28Z,42.805,6.029,13.3011,4.60033,2470.8,2021-5-11T09:00:39Z
2021-05-11T07:02:31Z,42.805,6.029,13.3000,4.60046,2470.787,2021-5-11T09:03:42Z
2021-05-11T07:05:34Z,42.805,6.029,13.3013,4.60039,2470.8,2021-5-11T09:06:45Z
2021-05-11T07:08:38Z,42.805,6.029,13.2999,4.60026,2470.824,2021-5-11T09:09:48Z
2021-05-11T07:11:41Z,42.805,6.029,13.2998,4.60021,2470.81,2021-5-11T09:12:51Z
2021-05-11T07:14:44Z,42.805,6.029,13.3004,4.60026,2470.824,2021-5-11T09:15:54Z
2021-05-11T07:17:47Z,42.805,6.029,13.3008,4.60032,2470.787,2021-5-11T09:18:58Z
2021-05-11T07:20:50Z,42.805,6.029,13.3006,4.60030,2470.787,2021-5-11T09:22:01Z
2021-05-11T07:23:53Z,42.805,6.029,13.3001,4.60034,2470.787,2021-5-11T09:25:04Z
2021-05-11T07:26:56Z,42.805,6.029,13.3004,4.60028,2470.763,2021-5-11T09:28:07Z
2021-05-11T07:29:59Z,42.805,6.029,13.3004,4.60027,2470.763,2021-5-11T09:31:10Z
2021-05-11T07:33:03Z,42.805,6.029,13.3001,4.60026,2470.787,2021-5-11T09:34:13Z
2021-05-11T07:36:06Z,42.805,6.029,13.3002,4.60026,2470.777,2021-5-11T09:37:16Z
2021-05-11T07:39:09Z,42.805,6.029,13.3001,4.60023,2470.787,2021-5-11T09:40:19Z
2021-05-11T07:42:12Z,42.805,6.029,13.2998,4.60022,2470.763,2021-5-11T09:43:23Z
2021-05-11T07:45:15Z,42.805,6.029,13.2999,4.60022,2470.763,2021-5-11T09:46:26Z
2021-05-11T07:48:18Z,42.805,6.029,13.3006,4.60021,2470.787,2021-5-11T09:49:29Z
2021-05-11T07:51:21Z,42.805,6.029,13.2996,4.60019,2470.763,2021-5-11T09:52:32Z
2021-05-11T07:54:24Z,42.805,6.029,13.2999,4.60014,2470.763,2021-5-11T09:55:35Z
2021-05-11T07:57:28Z,42.805,6.029,13.2995,4.60011,2470.81,2021-5-11T09:58:38Z
2021-05-11T08:00:31Z,42.805,6.029,13.2997,4.60026,2470.777,2021-5-11T10:01:41Z
2021-05-11T08:03:34Z,42.805,6.029,13.2996,4.60032,2470.754,2021-5-11T10:04:44Z
2021-05-11T08:06:37Z,42.805,6.029,13.2997,4.60011,2470.777,2021-5-11T10:07:48Z
2021-05-11T08:09:40Z,42.805,6.029,13.3003,4.60019,2470.74,2021-5-11T10:10:51Z
2021-05-11T08:12:43Z,42.805,6.029,13.2996,4.60021,2470.777,2021-5-11T10:13:54Z
2021-05-11T08:15:46Z,42.805,6.029,13.2998,4.60016,2470.74,2021-5-11T10:16:57Z
2021-05-11T08:18:49Z,42.805,6.029,13.2998,4.60020,2470.787,2021-5-11T10:20:00Z
2021-05-11T08:21:53Z,42.805,6.029,13.2999,4.60024,2470.763,2021-5-11T10:23:03Z
2021-05-11T08:24:56Z,42.805,6.029,13.2999,4.60020,2470.717,2021-5-11T10:26:06Z
2021-05-11T08:27:59Z,42.805,6.029,13.2993,4.60011,2470.74,2021-5-11T10:29:09Z
2021-05-11T08:31:02Z,42.805,6.029,13.2991,4.60010,2470.74,2021-5-11T10:32:13Z
2021-05-11T08:34:05Z,42.805,6.029,13.2991,4.60020,2470.74,2021-5-11T10:35:16Z
2021-05-11T08:37:08Z,42.805,6.029,13.2997,4.60019,2470.74,2021-5-11T10:38:19Z
2021-05-11T08:40:11Z,42.805,6.029,13.2998,4.60019,2470.74,2021-5-11T10:41:22Z
2021-05-11T08:43:14Z,42.805,6.029,13.2998,4.60017,2470.74,2021-5-11T10:44:25Z
2021-05-11T08:46:18Z,42.805,6.029,13.2995,4.60013,2470.754,2021-5-11T10:47:28Z
2021-05-11T08:49:21Z,42.805,6.029,13.2996,4.60011,2470.754,2021-5-11T10:50:31Z
2021-05-11T08:52:24Z,42.805,6.029,13.2995,4.60016,2470.763,2021-5-11T10:53:35Z
2021-05-11T08:55:27Z,42.805,6.029,13.3002,4.60024,2470.74,2021-5-11T10:56:38Z
2021-05-11T08:58:30Z,42.805,6.029,13.2998,4.60022,2470.74,2021-5-11T10:59:41Z
2021-05-11T09:01:33Z,42.805,6.029,13.3000,4.60016,2470.67,2021-5-11T11:02:44Z
2021-05-11T09:04:36Z,42.805,6.029,13.2996,4.60015,2470.74,2021-5-11T11:05:47Z
2021-05-11T09:07:39Z,42.805,6.029,13.2998,4.60009,2470.74,2021-5-11T11:08:50Z
2021-05-11T09:10:43Z,42.805,6.029,13.2991,4.60014,2470.717,2021-5-11T11:11:53Z
2021-05-11T09:13:46Z,42.805,6.029,13.2996,4.60020,2470.754,2021-5-11T11:14:56Z
2021-05-11T09:16:49Z,42.805,6.029,13.2992,4.60014,2470.73,2021-5-11T11:18:00Z
2021-05-11T09:19:52Z,42.805,6.029,13.2995,4.60022,2470.74,2021-5-11T11:21:03Z
2021-05-11T09:22:55Z,42.805,6.029,13.2993,4.60021,2470.693,2021-5-11T11:24:06Z
2021-05-11T09:25:58Z,42.805,6.029,13.3001,4.60023,2470.693,2021-5-11T11:27:09Z
2021-05-11T09:29:01Z,42.805,6.029,13.2995,4.60016,2470.693,2021-5-11T11:30:12Z
2021-05-11T09:32:04Z,42.805,6.029,13.2993,4.60012,2470.693,2021-5-11T11:33:15Z
2021-05-11T09:35:08Z,42.805,6.029,13.2994,4.60014,2470.73,2021-5-11T11:36:18Z
2021-05-11T09:38:11Z,42.805,6.029,13.2988,4.60011,2470.717,2021-5-11T11:39:21Z
2021-05-11T09:41:14Z,42.805,6.029,13.2992,4.60011,2470.693,2021-5-11T11:42:25Z
2021-05-11T09:44:17Z,42.805,6.029,13.2991,4.60003,2470.717,2021-5-11T11:45:28Z
2021-05-11T09:47:20Z,42.805,6.029,13.2992,4.60019,2470.74,2021-5-11T11:48:31Z
2021-05-11T09:50:23Z,42.805,6.029,13.2994,4.60015,2470.707,2021-5-11T11:51:34Z
2021-05-11T09:53:26Z,42.805,6.029,13.2990,4.60011,2470.707,2021-5-11T11:54:37Z
2021-05-11T09:56:30Z,42.805,6.029,13.2998,4.60017,2470.67,2021-5-11T11:57:40Z
2021-05-11T09:59:33Z,42.805,6.029,13.2994,4.60014,2470.684,2021-5-11T12:00:43Z
2021-05-11T10:02:36Z,42.805,6.029,13.2996,4.60014,2470.707,2021-5-11T12:03:46Z
2021-05-11T10:05:39Z,42.805,6.029,13.2996,4.60006,2470.717,2021-5-11T12:06:50Z
2021-05-11T10:08:42Z,42.805,6.029,13.2990,4.60012,2470.661,2021-5-11T12:09:53Z
2021-05-11T10:11:45Z,42.805,6.029,13.2993,4.60014,2470.693,2021-5-11T12:12:56Z
2021-05-11T10:14:48Z,42.805,6.029,13.2991,4.60003,2470.646,2021-5-11T12:15:59Z
2021-05-11T10:17:51Z,42.805,6.029,13.2991,4.60010,2470.693,2021-5-11T12:19:02Z
2021-05-11T10:20:55Z,42.805,6.029,13.2993,4.60011,2470.707,2021-5-11T12:22:05Z
2021-05-11T10:23:58Z,42.805,6.029,13.2997,4.60016,2470.707,2021-5-11T12:25:08Z
2021-05-11T10:27:01Z,42.805,6.029,13.2991,4.60014,2470.646,2021-5-11T12:28:11Z
2021-05-11T10:30:04Z,42.805,6.029,13.2994,4.60005,2470.67,2021-5-11T12:31:15Z
2021-05-11T10:33:07Z,42.805,6.029,13.2992,4.60010,2470.707,2021-5-11T12:34:18Z
2021-05-11T10:36:10Z,42.805,6.029,13.2993,4.60009,2470.684,2021-5-11T12:37:21Z
2021-05-11T10:39:13Z,42.805,6.029,13.2991,4.60004,2470.684,2021-5-11T12:40:24Z
2021-05-11T10:42:16Z,42.805,6.029,13.2993,4.60006,2470.637,2021-5-11T12:43:27Z
2021-05-11T10:45:20Z,42.805,6.029,13.2991,4.60009,2470.661,2021-5-11T12:46:30Z
2021-05-11T10:48:23Z,42.805,6.029,13.2994,4.60005,2470.624,2021-5-11T12:49:33Z
2021-05-11T10:51:26Z,42.805,6.029,13.2993,4.60017,2470.646,2021-5-11T12:52:37Z
2021-05-11T10:54:29Z,42.805,6.029,13.2998,4.60024,2470.67,2021-5-11T12:55:40Z
2021-05-11T10:57:32Z,42.805,6.029,13.2993,4.60009,2470.661,2021-5-11T12:58:43Z
2021-05-11T11:00:35Z,42.805,6.029,13.2998,4.60010,2470.661,2021-5-11T13:01:46Z
2021-05-11T11:03:38Z,42.805,6.029,13.2995,4.60014,2470.624,2021-5-11T13:04:49Z
2021-05-11T11:06:41Z,42.805,6.029,13.2991,4.60011,2470.646,2021-5-11T13:07:52Z
2021-05-11T11:09:45Z,42.805,6.029,13.2993,4.60014,2470.637,2021-5-11T13:10:55Z
2021-05-11T11:12:48Z,42.805,6.029,13.2990,4.60013,2470.661,2021-5-11T13:13:58Z
2021-05-11T11:15:51Z,42.805,6.029,13.2988,4.60009,2470.624,2021-5-11T13:17:02Z
2021-05-11T11:18:54Z,42.805,6.029,13.2993,4.60006,2470.661,2021-5-11T13:20:05Z
2021-05-11T11:21:57Z,42.805,6.029,13.2993,4.60011,2470.624,2021-5-11T13:23:08Z
2021-05-11T11:25:00Z,42.805,6.029,13.2993,4.60011,2470.6,2021-5-11T13:26:11Z
2021-05-11T11:28:03Z,42.805,6.029,13.2996,4.60025,2470.646,2021-5-11T13:29:14Z
2021-05-11T11:31:06Z,42.805,6.029,13.2990,4.60012,2470.661,2021-5-11T13:32:17Z
2021-05-11T11:34:10Z,42.805,6.029,13.2999,4.60014,2470.624,2021-5-11T13:35:20Z
2021-05-11T11:37:13Z,42.805,6.029,13.2994,4.60011,2470.624,2021-5-11T13:38:23Z
2021-05-11T11:40:16Z,42.805,6.029,13.2991,4.60009,2470.6,2021-5-11T13:41:27Z
2021-05-11T11:43:19Z,42.805,6.029,13.2994,4.60014,2470.624,2021-5-11T13:44:30Z
2021-05-11T11:46:22Z,42.805,6.029,13.2991,4.60007,2470.624,2021-5-11T13:47:33Z
2021-05-11T11:49:25Z,42.805,6.029,13.2995,4.60004,2470.614,2021-5-11T13:50:36Z
2021-05-11T11:52:28Z,42.805,6.029,13.2994,4.60008,2470.637,2021-5-11T13:53:39Z
2021-05-11T11:55:31Z,42.805,6.029,13.2991,4.60009,2470.6,2021-5-11T13:56:42Z
2021-05-11T11:58:35Z,42.805,6.029,13.2996,4.60014,2470.614,2021-5-11T13:59:45Z
2021-05-11T12:01:38Z,42.805,6.029,13.2991,4.60014,2470.6,2021-5-11T14:02:48Z
2021-05-11T12:04:41Z,42.805,6.029,13.2994,4.60009,2470.614,2021-5-11T14:05:52Z
2021-05-11T12:07:44Z,42.805,6.029,13.2996,4.60009,2470.637,2021-5-11T14:08:55Z
2021-05-11T12:10:47Z,42.805,6.029,13.2990,4.60007,2470.637,2021-5-11T14:11:58Z
2021-05-11T12:13:50Z,42.805,6.029,13.2991,4.60006,2470.6,2021-5-11T14:15:01Z
2021-05-11T12:16:53Z,42.805,6.029,13.2989,4.60008,2470.614,2021-5-11T14:18:04Z
2021-05-11T12:19:57Z,42.805,6.029,13.2996,4.60015,2470.6,2021-5-11T14:21:07Z
2021-05-11T12:23:00Z,42.805,6.029,13.2996,4.60031,2470.624,2021-5-11T14:24:10Z
2021-05-11T12:26:03Z,42.805,6.029,13.2996,4.60014,2470.614,2021-5-11T14:27:14Z
2021-05-11T12:29:06Z,42.805,6.029,13.2987,4.60008,2470.6,2021-5-11T14:30:17Z
2021-05-11T12:32:09Z,42.805,6.029,13.2994,4.60022,2470.637,2021-5-11T14:33:20Z
2021-05-11T12:35:12Z,42.805,6.029,13.2996,4.60015,2470.6,2021-5-11T14:36:23Z
2021-05-11T12:38:15Z,42.805,6.029,13.2991,4.60011,2470.614,2021-5-11T14:39:26Z
2021-05-11T12:41:18Z,42.805,6.029,13.2992,4.60021,2470.614,2021-5-11T14:42:29Z
2021-05-11T12:44:22Z,42.805,6.029,13.2996,4.60010,2470.614,2021-5-11T14:45:32Z
2021-05-11T12:47:25Z,42.805,6.029,13.2993,4.60012,2470.577,2021-5-11T14:48:35Z
2021-05-11T12:50:28Z,42.805,6.029,13.2993,4.60013,2470.614,2021-5-11T14:51:39Z
2021-05-11T12:53:31Z,42.805,6.029,13.2992,4.60012,2470.586,2021-5-11T14:54:42Z
2021-05-11T12:56:34Z,42.805,6.029,13.2995,4.60013,2470.614,2021-5-11T14:57:45Z
2021-05-11T12:59:37Z,42.805,6.029,13.2996,4.60025,2470.6,2021-5-11T15:00:48Z
2021-05-11T13:02:40Z,42.805,6.029,13.2990,4.60013,2470.6,2021-5-11T15:03:51Z
2021-05-11T13:05:43Z,42.805,6.029,13.2996,4.60016,2470.614,2021-5-11T15:06:54Z
2021-05-11T13:08:47Z,42.805,6.029,13.2991,4.60017,2470.614,2021-5-11T15:09:57Z
2021-05-11T13:11:50Z,42.805,6.029,13.2995,4.60029,2470.577,2021-5-11T15:13:00Z
2021-05-11T13:14:53Z,42.805,6.029,13.2993,4.60014,2470.614,2021-5-11T15:16:04Z
2021-05-11T13:17:56Z,42.805,6.029,13.2994,4.60014,2470.577,2021-5-11T15:19:07Z
2021-05-11T13:20:59Z,42.805,6.029,13.2991,4.60012,2470.6,2021-5-11T15:22:10Z
2021-05-11T13:24:02Z,42.805,6.029,13.2995,4.60020,2470.614,2021-5-11T15:25:13Z
2021-05-11T13:27:05Z,42.805,6.029,13.2991,4.60016,2470.6,2021-5-11T15:28:16Z
2021-05-11T13:30:08Z,42.805,6.029,13.2994,4.60024,2470.614,2021-5-11T15:31:19Z
2021-05-11T13:33:12Z,42.805,6.029,13.2996,4.60011,2470.6,2021-5-11T15:34:22Z
2021-05-11T13:36:15Z,42.805,6.029,13.2993,4.60016,2470.577,2021-5-11T15:37:25Z
2021-05-11T13:39:18Z,42.805,6.029,13.2987,4.60006,2470.591,2021-5-11T15:40:29Z
2021-05-11T13:42:21Z,42.805,6.029,13.2998,4.60020,2470.591,2021-5-11T15:43:32Z
2021-05-11T13:45:24Z,42.805,6.029,13.2994,4.60032,2470.614,2021-5-11T15:46:35Z
2021-05-11T13:48:27Z,42.805,6.029,13.2992,4.60012,2470.614,2021-5-11T15:49:38Z
2021-05-11T13:51:30Z,42.805,6.029,13.2993,4.60011,2470.577,2021-5-11T15:52:41Z
2021-05-11T13:54:33Z,42.805,6.029,13.2990,4.60025,2470.637,2021-5-11T15:55:44Z
2021-05-11T13:57:37Z,42.805,6.029,13.2993,4.60013,2470.614,2021-5-11T15:58:47Z
2021-05-11T14:00:40Z,42.805,6.029,13.2996,4.60019,2470.614,2021-5-11T16:01:50Z
2021-05-11T14:03:43Z,42.805,6.029,13.2991,4.60021,2470.577,2021-5-11T16:04:54Z
2021-05-11T14:06:46Z,42.805,6.029,13.2994,4.60011,2470.6,2021-5-11T16:07:57Z
2021-05-11T14:09:49Z,42.805,6.029,13.2990,4.60018,2470.553,2021-5-11T16:11:00Z
2021-05-11T14:12:52Z,42.805,6.029,13.2992,4.60010,2470.6,2021-5-11T16:14:03Z
2021-05-11T14:15:55Z,42.805,6.029,13.2993,4.60020,2470.591,2021-5-11T16:17:06Z
2021-05-11T14:18:58Z,42.805,6.029,13.2996,4.60014,2470.61,2021-5-11T16:20:09Z
2021-05-11T14:22:02Z,42.805,6.029,13.2991,4.60014,2470.553,2021-5-11T16:23:12Z
2021-05-11T14:25:05Z,42.805,6.029,13.2998,4.60022,2470.591,2021-5-11T16:26:15Z
2021-05-11T14:28:08Z,42.805,6.029,13.3001,4.60028,2470.6,2021-5-11T16:29:19Z
2021-05-11T14:31:11Z,42.805,6.029,13.2993,4.60014,2470.577,2021-5-11T16:32:22Z
2021-05-11T14:34:14Z,42.805,6.029,13.2990,4.60008,2470.637,2021-5-11T16:35:25Z
2021-05-11T14:37:17Z,42.805,6.029,13.2996,4.60004,2470.646,2021-5-11T16:38:28Z
2021-05-11T14:40:20Z,42.805,6.029,13.2993,4.60011,2470.637,2021-5-11T16:41:31Z
2021-05-11T14:43:24Z,42.805,6.029,13.2995,4.60014,2470.6,2021-5-11T16:44:34Z
2021-05-11T14:46:27Z,42.805,6.029,13.2989,4.60014,2470.614,2021-5-11T16:47:37Z
2021-05-11T14:49:30Z,42.805,6.029,13.3002,4.60019,2470.6,2021-5-11T16:50:40Z
2021-05-11T14:52:33Z,42.805,6.029,13.2985,4.60010,2470.6,2021-5-11T16:53:44Z
2021-05-11T14:55:36Z,42.805,6.029,13.2993,4.60023,2470.6,2021-5-11T16:56:47Z
2021-05-11T14:58:39Z,42.805,6.029,13.2996,4.60021,2470.637,2021-5-11T16:59:50Z
2021-05-11T15:01:42Z,42.805,6.029,13.2996,4.60020,2470.646,2021-5-11T17:02:53Z
2021-05-11T15:04:45Z,42.805,6.029,13.2998,4.60021,2470.624,2021-5-11T17:05:56Z
2021-05-11T15:07:49Z,42.805,6.029,13.3000,4.60021,2470.6,2021-5-11T17:08:59Z
2021-05-11T15:10:52Z,42.805,6.029,13.2991,4.60011,2470.6,2021-5-11T17:12:02Z
2021-05-11T15:13:55Z,42.805,6.029,13.2994,4.60017,2470.67,2021-5-11T17:15:06Z